﻿_id,UTC_DateTime,UTC_Time,PG,PG_mean,unit,site,lat,lon,alt
1,2013-05-20T00:00:00,00:00:00,,,"","",,,
2,2013-05-20T01:00:00,01:00:00,,,"","",,,
3,2013-05-20T02:00:00,02:00:00,,,"","",,,
4,2013-05-20T03:00:00,03:00:00,,,"","",,,
5,2013-05-20T04:00:00,04:00:00,,,"","",,,
6,2013-05-20T05:00:00,05:00:00,,,"","",,,
7,2013-05-20T06:00:00,06:00:00,,,"","",,,
8,2013-05-20T07:00:00,07:00:00,,,"","",,,
9,2013-05-20T08:00:00,08:00:00,,,"","",,,
10,2013-05-20T09:00:00,09:00:00,,,"","",,,
11,2013-05-20T10:00:00,10:00:00,,,"","",,,
12,2013-05-20T11:00:00,11:00:00,,,"","",,,
13,2013-05-20T12:00:00,12:00:00,,,"","",,,
14,2013-05-20T13:00:00,13:00:00,,,"","",,,
15,2013-05-20T14:00:00,14:00:00,,,"","",,,
16,2013-05-20T15:00:00,15:00:00,,,"","",,,
17,2013-05-20T16:00:00,16:00:00,,,"","",,,
18,2013-05-20T17:00:00,17:00:00,,,"","",,,
19,2013-05-20T18:00:00,18:00:00,,,"","",,,
20,2013-05-20T19:00:00,19:00:00,,,"","",,,
21,2013-05-20T20:00:00,20:00:00,,,"","",,,
22,2013-05-20T21:00:00,21:00:00,,,"","",,,
23,2013-05-20T22:00:00,22:00:00,,,"","",,,
24,2013-05-20T23:00:00,23:00:00,,,"","",,,
25,2013-05-21T00:00:00,00:00:00,75,70,V/m,CAS,-31.798,290.705,2550
26,2013-05-21T01:00:00,01:00:00,73,66,V/m,CAS,-31.798,290.705,2550
27,2013-05-21T02:00:00,02:00:00,76,65,V/m,CAS,-31.798,290.705,2550
28,2013-05-21T03:00:00,03:00:00,71,64,V/m,CAS,-31.798,290.705,2550
29,2013-05-21T04:00:00,04:00:00,68,65,V/m,CAS,-31.798,290.705,2550
30,2013-05-21T05:00:00,05:00:00,72,66,V/m,CAS,-31.798,290.705,2550
31,2013-05-21T06:00:00,06:00:00,89,69,V/m,CAS,-31.798,290.705,2550
32,2013-05-21T07:00:00,07:00:00,82,70,V/m,CAS,-31.798,290.705,2550
33,2013-05-21T08:00:00,08:00:00,74,70,V/m,CAS,-31.798,290.705,2550
34,2013-05-21T09:00:00,09:00:00,72,68,V/m,CAS,-31.798,290.705,2550
35,2013-05-21T10:00:00,10:00:00,67,67,V/m,CAS,-31.798,290.705,2550
36,2013-05-21T11:00:00,11:00:00,65,68,V/m,CAS,-31.798,290.705,2550
37,2013-05-21T12:00:00,12:00:00,77,77,V/m,CAS,-31.798,290.705,2550
38,2013-05-21T13:00:00,13:00:00,94,91,V/m,CAS,-31.798,290.705,2550
39,2013-05-21T14:00:00,14:00:00,104,99,V/m,CAS,-31.798,290.705,2550
40,2013-05-21T15:00:00,15:00:00,116,105,V/m,CAS,-31.798,290.705,2550
41,2013-05-21T16:00:00,16:00:00,123,108,V/m,CAS,-31.798,290.705,2550
42,2013-05-21T17:00:00,17:00:00,137,108,V/m,CAS,-31.798,290.705,2550
43,2013-05-21T18:00:00,18:00:00,139,111,V/m,CAS,-31.798,290.705,2550
44,2013-05-21T19:00:00,19:00:00,130,109,V/m,CAS,-31.798,290.705,2550
45,2013-05-21T20:00:00,20:00:00,138,104,V/m,CAS,-31.798,290.705,2550
46,2013-05-21T21:00:00,21:00:00,133,95,V/m,CAS,-31.798,290.705,2550
47,2013-05-21T22:00:00,22:00:00,115,83,V/m,CAS,-31.798,290.705,2550
48,2013-05-21T23:00:00,23:00:00,107,73,V/m,CAS,-31.798,290.705,2550
49,2013-05-22T00:00:00,00:00:00,77,70,V/m,CAS,-31.798,290.705,2550
50,2013-05-22T01:00:00,01:00:00,73,66,V/m,CAS,-31.798,290.705,2550
51,2013-05-22T02:00:00,02:00:00,72,65,V/m,CAS,-31.798,290.705,2550
52,2013-05-22T03:00:00,03:00:00,70,64,V/m,CAS,-31.798,290.705,2550
53,2013-05-22T04:00:00,04:00:00,69,65,V/m,CAS,-31.798,290.705,2550
54,2013-05-22T05:00:00,05:00:00,68,66,V/m,CAS,-31.798,290.705,2550
55,2013-05-22T06:00:00,06:00:00,68,69,V/m,CAS,-31.798,290.705,2550
56,2013-05-22T07:00:00,07:00:00,67,70,V/m,CAS,-31.798,290.705,2550
57,2013-05-22T08:00:00,08:00:00,70,70,V/m,CAS,-31.798,290.705,2550
58,2013-05-22T09:00:00,09:00:00,68,68,V/m,CAS,-31.798,290.705,2550
59,2013-05-22T10:00:00,10:00:00,67,67,V/m,CAS,-31.798,290.705,2550
60,2013-05-22T11:00:00,11:00:00,68,68,V/m,CAS,-31.798,290.705,2550
61,2013-05-22T12:00:00,12:00:00,69,77,V/m,CAS,-31.798,290.705,2550
62,2013-05-22T13:00:00,13:00:00,89,91,V/m,CAS,-31.798,290.705,2550
63,2013-05-22T14:00:00,14:00:00,105,99,V/m,CAS,-31.798,290.705,2550
64,2013-05-22T15:00:00,15:00:00,111,105,V/m,CAS,-31.798,290.705,2550
65,2013-05-22T16:00:00,16:00:00,113,108,V/m,CAS,-31.798,290.705,2550
66,2013-05-22T17:00:00,17:00:00,116,108,V/m,CAS,-31.798,290.705,2550
67,2013-05-22T18:00:00,18:00:00,124,111,V/m,CAS,-31.798,290.705,2550
68,2013-05-22T19:00:00,19:00:00,125,109,V/m,CAS,-31.798,290.705,2550
69,2013-05-22T20:00:00,20:00:00,121,104,V/m,CAS,-31.798,290.705,2550
70,2013-05-22T21:00:00,21:00:00,105,95,V/m,CAS,-31.798,290.705,2550
71,2013-05-22T22:00:00,22:00:00,86,83,V/m,CAS,-31.798,290.705,2550
72,2013-05-22T23:00:00,23:00:00,79,73,V/m,CAS,-31.798,290.705,2550
73,2013-05-23T00:00:00,00:00:00,73,70,V/m,CAS,-31.798,290.705,2550
74,2013-05-23T01:00:00,01:00:00,69,66,V/m,CAS,-31.798,290.705,2550
75,2013-05-23T02:00:00,02:00:00,62,65,V/m,CAS,-31.798,290.705,2550
76,2013-05-23T03:00:00,03:00:00,64,64,V/m,CAS,-31.798,290.705,2550
77,2013-05-23T04:00:00,04:00:00,62,65,V/m,CAS,-31.798,290.705,2550
78,2013-05-23T05:00:00,05:00:00,65,66,V/m,CAS,-31.798,290.705,2550
79,2013-05-23T06:00:00,06:00:00,71,69,V/m,CAS,-31.798,290.705,2550
80,2013-05-23T07:00:00,07:00:00,68,70,V/m,CAS,-31.798,290.705,2550
81,2013-05-23T08:00:00,08:00:00,73,70,V/m,CAS,-31.798,290.705,2550
82,2013-05-23T09:00:00,09:00:00,70,68,V/m,CAS,-31.798,290.705,2550
83,2013-05-23T10:00:00,10:00:00,66,67,V/m,CAS,-31.798,290.705,2550
84,2013-05-23T11:00:00,11:00:00,65,68,V/m,CAS,-31.798,290.705,2550
85,2013-05-23T12:00:00,12:00:00,67,77,V/m,CAS,-31.798,290.705,2550
86,2013-05-23T13:00:00,13:00:00,81,91,V/m,CAS,-31.798,290.705,2550
87,2013-05-23T14:00:00,14:00:00,83,99,V/m,CAS,-31.798,290.705,2550
88,2013-05-23T15:00:00,15:00:00,91,105,V/m,CAS,-31.798,290.705,2550
89,2013-05-23T16:00:00,16:00:00,103,108,V/m,CAS,-31.798,290.705,2550
90,2013-05-23T17:00:00,17:00:00,101,108,V/m,CAS,-31.798,290.705,2550
91,2013-05-23T18:00:00,18:00:00,102,111,V/m,CAS,-31.798,290.705,2550
92,2013-05-23T19:00:00,19:00:00,108,109,V/m,CAS,-31.798,290.705,2550
93,2013-05-23T20:00:00,20:00:00,103,104,V/m,CAS,-31.798,290.705,2550
94,2013-05-23T21:00:00,21:00:00,92,95,V/m,CAS,-31.798,290.705,2550
95,2013-05-23T22:00:00,22:00:00,77,83,V/m,CAS,-31.798,290.705,2550
96,2013-05-23T23:00:00,23:00:00,71,73,V/m,CAS,-31.798,290.705,2550
97,2013-05-24T00:00:00,00:00:00,69,70,V/m,CAS,-31.798,290.705,2550
98,2013-05-24T01:00:00,01:00:00,64,66,V/m,CAS,-31.798,290.705,2550
99,2013-05-24T02:00:00,02:00:00,67,65,V/m,CAS,-31.798,290.705,2550
100,2013-05-24T03:00:00,03:00:00,68,64,V/m,CAS,-31.798,290.705,2550
101,2013-05-24T04:00:00,04:00:00,69,65,V/m,CAS,-31.798,290.705,2550
102,2013-05-24T05:00:00,05:00:00,68,66,V/m,CAS,-31.798,290.705,2550
103,2013-05-24T06:00:00,06:00:00,71,69,V/m,CAS,-31.798,290.705,2550
104,2013-05-24T07:00:00,07:00:00,71,70,V/m,CAS,-31.798,290.705,2550
105,2013-05-24T08:00:00,08:00:00,71,70,V/m,CAS,-31.798,290.705,2550
106,2013-05-24T09:00:00,09:00:00,70,68,V/m,CAS,-31.798,290.705,2550
107,2013-05-24T10:00:00,10:00:00,71,67,V/m,CAS,-31.798,290.705,2550
108,2013-05-24T11:00:00,11:00:00,74,68,V/m,CAS,-31.798,290.705,2550
109,2013-05-24T12:00:00,12:00:00,87,77,V/m,CAS,-31.798,290.705,2550
110,2013-05-24T13:00:00,13:00:00,102,91,V/m,CAS,-31.798,290.705,2550
111,2013-05-24T14:00:00,14:00:00,104,99,V/m,CAS,-31.798,290.705,2550
112,2013-05-24T15:00:00,15:00:00,113,105,V/m,CAS,-31.798,290.705,2550
113,2013-05-24T16:00:00,16:00:00,116,108,V/m,CAS,-31.798,290.705,2550
114,2013-05-24T17:00:00,17:00:00,112,108,V/m,CAS,-31.798,290.705,2550
115,2013-05-24T18:00:00,18:00:00,121,111,V/m,CAS,-31.798,290.705,2550
116,2013-05-24T19:00:00,19:00:00,131,109,V/m,CAS,-31.798,290.705,2550
117,2013-05-24T20:00:00,20:00:00,115,104,V/m,CAS,-31.798,290.705,2550
118,2013-05-24T21:00:00,21:00:00,97,95,V/m,CAS,-31.798,290.705,2550
119,2013-05-24T22:00:00,22:00:00,81,83,V/m,CAS,-31.798,290.705,2550
120,2013-05-24T23:00:00,23:00:00,77,73,V/m,CAS,-31.798,290.705,2550
